{"data":{"norad_id":56142,"intl_designator":"2023-046BC","name":"STARLINK-5376","alt_names":[],"object_type":"PAYLOAD","status":"ACTIVE","operator":null,"country":"US","launch_date":"2023-03-29","launch_site_code":"AFETR","launch_vehicle":null,"mission":null,"orbit_class":"UNKNOWN","rcs_meters":null,"size_class":null,"mass_kg":null,"dimensions":null,"purposes":["comms"],"wikipedia_slug":null,"has_3d_model":false,"image_url":null,"decayed_at":null,"tle_current":{"epoch":"2026-05-25T04:34:41.777184Z","epoch_age_seconds":55181,"freshness":"FRESH","line1":"1 56142U 23046BC  26145.19076131  .00000843  00000+0  40145-4 0  9991","line2":"2 56142  43.0053  74.6379 0001172 269.4818  90.5900 15.27579221173904","mean_motion":15.27579221,"eccentricity":0.0001172,"inclination_deg":43.0053,"raan_deg":74.6379,"arg_perigee_deg":269.4818,"mean_anomaly_deg":90.59,"bstar":4.0145e-5,"rev_number":17390,"period_min":94.266796785658,"perigee_km":482.24729736305,"apogee_km":483.85555993073,"semimajor_km":6861.1884286469,"source":"CELESTRAK","updated_at":"2026-05-25T13:38:17.962921Z"}}}